User: anonymous   Login
Location: Unspecified
(0.0000°N, 0.0000°E)
Time: 09:41:00
(UTC+00:00)
Language:

Syncom 3 - Orbit

View from above orbital plane
View from above orbital plane
View from above satellite
View from above satellite

Ground track
Ground track

The orbit data is extracted from the following two-line orbital elements,

1 00858U 64047A   17295.38959889 -.00000043  00000-0  00000+0 0  9992
2 00858   0.6880 326.0678 0005662 267.9930 106.5186  1.00254126157069
Epoch (UTC): 22 October 2017 09:21:01
Eccentricity: 0.0005662
inclination: 0.6880°
perigee height: 35767 km
apogee height: 35815 km
right ascension of ascending node: 326.0678°
argument of perigee: 267.9930°
revolutions per day: 1.00254126
mean anomaly at epoch: 106.5186°
orbit number at epoch: 15706

The dashed part of the orbit path shows where the satellite is in the earth's shadow,  

DLR